Location: Unspecified
(0.0000°N, 0.0000°E)
Time: 07:39:10
(UTC+00:00)

Vanguard 1 Rocket - Pass Details

Date: 27 November 2022
Orbit: 651 x 4224 km, 34.3° (Epoch: 04 February)

Event Time Altitude Azimuth Distance (km) Brightness Sun altitude
Rises 21:18:29 0° 227° (SW) 8,108 12.9 -47.8°
Reaches altitude 10° 21:28:12 10° 209° (SSW) 6,455 12.1 -49.9°
Maximum altitude 21:39:05 17° 175° (S) 4,838 11.2 -52.1°
Enters shadow 21:45:05 13° 147° (SSE) 4,478 10.9 -53.3°
